[[{"header":{"parameterUnit":"m.s-1","parameterCategory":1,"la1":30.2991,"la2":30.254,"lo1":-89.0895,"lo2":-89.0444,"dy":0.0017,"dx":0.0017,"nx":28,"ny":28,"refTime":"2024-04-27T21:00:00:Z","depth":0,"parameterNumber":2,"parameterNumberName":"U-component_of_WINDS"},"data":[0,0,0,0,0,0,0,0,0,0,0,0,0,0,0,0,0,0,0,0,0,0,0,0,0,0,0,0,0,0,0,0,0,0,0,0,0,0,0,0,0,0,0,0,0,0,0,0,0,0,0,0,0,0,0,0,0,0,-4.2053,-4.2055,0,-4.216,-4.2161,-4.2162,-4.2166,-4.2165,-4.2164,-4.2163,-4.2271,-4.2275,-4.2279,0,0,0,0,0,0,0,0,0,0,0,0,0,-4.1855,-4.1858,-4.2053,-4.2055,-4.2056,-4.216,-4.2161,-4.2163,-4.2167,-4.2165,-4.2164,-4.2162,-4.227,-4.2275,-4.2279,0,0,0,0,0,0,0,0,0,0,0,0,0,-4.1949,-4.1859,-4.2053,-4.2071,-4.2073,-4.2159,-4.2161,-4.2163,-4.2167,-4.2165,-4.2163,-4.2161,-4.2268,-4.2274,-4.228,-4.2356,0,0,-4.2299,-4.2301,0,0,0,0,0,0,0,0,-4.1943,-4.1956,-4.2067,-4.2069,-4.2073,-4.2148,-4.2131,-4.2228,-4.2167,-4.2131,-4.2163,-4.216,-4.2232,-4.2241,-4.2265,-4.2361,-4.2366,-4.2299,-4.2303,-4.2306,-4.2307,0,0,0,0,0,0,0,-4.1937,-4.1952,-4.2095,-4.2068,-4.2072,-4.2073,-4.2085,-4.2149,-4.2191,-4.2134,-4.2135,-4.2147,-4.2233,-4.2259,-4.2267,-4.2367,-4.2299,-4.2305,-4.2308,-4.2311,-4.2533,-4.2535,0,0,0,0,0,0,-4.1927,-4.1946,-4.2092,-4.2099,-4.2002,-4.2079,-4.2091,-4.2126,-4.219,-4.2198,-4.2149,-4.2147,-4.2249,-4.226,-4.2271,-4.2365,-4.2306,-4.2311,-4.2315,-4.2531,-4.2534,-4.2536,0,0,0,0,0,0,-4.1923,-4.194,-4.2088,-4.2023,-4.2042,-4.2084,-4.2123,-4.2129,-4.2155,-4.2201,-4.2209,-4.2168,-4.2248,-4.2263,-4.2335,-4.2368,-4.2314,-4.232,-4.2528,-4.2532,-4.2535,-4.2552,0,0,0,0,0,0,-4.1917,-4.1938,-4.1967,-4.2023,-4.2045,-4.215,-4.2125,-4.2132,-4.2165,-4.2164,-4.2221,-4.2228,-4.2248,-4.2326,-4.2341,-4.2376,-4.2324,-4.2525,-4.253,-4.2534,-4.2549,-4.2555,-4.2561,0,0,0,0,0,-4.191,-4.1967,-4.1968,-4.1986,-4.2082,-4.2152,-4.2164,-4.2185,-4.2168,-4.2197,-4.2228,-4.2227,-4.2363,-4.2334,-4.2351,-4.2388,-4.2523,-4.2529,-4.2533,-4.2546,-4.2554,-4.2561,0,0,0,0,0,0,-4.1913,-4.1975,-4.1977,-4.2054,-4.2098,-4.2152,-4.219,-4.2193,-4.2242,-4.2239,-4.2264,-4.2277,-4.2349,-4.2376,-4.2342,-4.2465,-4.2441,-4.245,-4.2445,-4.2453,-4.2459,-4.2451,-4.233,0,0,0,0,0,-4.1923,-4.1974,-4.2026,-4.2089,-4.2111,-4.2147,-4.2178,-4.2191,-4.2237,-4.2255,-4.229,-4.2335,-4.2388,-4.2422,-4.2474,-4.2553,-4.2566,-4.2588,-4.2594,-4.2599,-4.2606,-4.2651,-4.2661,-4.2553,-4.2553,-4.2552,0,0,-4.1943,-4.1983,-4.2014,-4.2091,-4.2126,-4.2179,-4.2162,-4.2218,-4.2258,-4.2263,-4.2334,-4.2362,-4.2414,-4.2491,-4.2526,-4.2515,-4.2639,-4.2605,-4.2609,-4.2613,-4.2657,-4.2667,-4.2676,-4.2556,-4.2555,-4.2555,0,0,-4.2007,-4.2043,-4.21,-4.2136,-4.219,-4.2214,-4.2228,-4.2283,-4.2302,-4.2374,-4.2379,-4.2427,-4.2518,-4.2555,-4.2585,-4.2667,-4.2668,-4.2683,-4.2716,-4.2759,-4.2768,-4.2775,-4.2804,-4.2814,-4.269,-4.269,-4.269,0,-4.2025,-4.2105,-4.2129,-4.2186,-4.2219,-4.2228,-4.2287,-4.2321,-4.2388,-4.2412,-4.2399,-4.2514,-4.255,-4.2635,-4.2656,-4.268,-4.2697,-4.2675,-4.2765,-4.2773,-4.278,-4.2808,-4.2819,-4.2691,-4.2691,-4.2691,-4.2691,0,-4.2125,-4.2181,-4.2221,-4.2287,-4.2325,-4.2382,-4.2415,-4.2451,-4.2462,-4.2488,-4.2562,-4.2605,-4.2666,-4.2688,-4.2698,-4.2776,-4.2767,-4.276,-4.2735,-4.2792,-4.2818,-4.2829,-4.2693,-4.2693,-4.2692,-4.2692,0,0,-4.2191,-4.2272,-4.2286,-4.2317,-4.2378,-4.2422,-4.248,-4.254,-4.2571,-4.2619,-4.2668,-4.2746,-4.274,-4.2775,-4.279,-4.2829,-4.2891,-4.2817,-4.2818,-4.2828,-4.298,-4.2984,-4.2996,-4.2893,-4.2895,-4.2897,-4.2975,0,-4.2262,-4.2365,-4.2389,-4.2479,-4.2531,-4.2542,-4.2593,-4.2636,-4.2663,-4.2711,-4.2741,-4.2795,-4.2783,-4.2804,-4.2843,-4.2875,-4.2921,-4.287,-4.2939,-4.2941,-4.2924,-4.301,-4.3015,-4.3086,-4.2986,-4.2988,-4.2989,0,-4.2357,-4.2407,-4.2502,-4.2558,-4.2581,-4.2626,-4.2684,-4.273,-4.2781,-4.2797,-4.2838,-4.285,-4.2912,-4.2886,-4.2973,-4.2937,-4.2968,-4.2988,-4.2991,-4.2997,-4.2967,-4.3017,-4.311,-4.312,-4.3005,-4.3004,-4.3003,0,-4.2395,-4.2487,-4.2556,-4.2582,-4.2649,-4.2681,-4.2711,-4.2759,-4.2795,-4.2846,-4.2869,-4.2926,-4.2958,-4.3002,-4.303,-4.3009,-4.3114,-4.3091,-4.313,-4.3129,-4.315,-4.3148,-4.3247,-4.3171,-4.3171,-4.3171,-4.3171,0,-4.247,-4.2527,-4.2574,-4.2616,-4.2681,-4.2709,-4.2773,-4.2803,-4.2846,-4.2895,-4.2908,-4.2954,-4.2988,-4.3039,-4.3061,-4.3129,-4.3143,-4.3159,-4.3164,-4.3157,-4.3155,-4.3176,-4.3171,-4.3174,-4.3173,-4.3173,-4.3172,0,-4.2523,-4.2556,-4.2632,-4.269,-4.2707,-4.2752,-4.2802,-4.2844,-4.2872,-4.2933,-4.2949,-4.2993,-4.3053,-4.3086,-4.3161,-4.3176,-4.3253,-4.3256,-4.3236,-4.3237,-4.3274,-4.327,-4.3389,-4.3406,-4.332,-4.3321,-4.3322,0,-4.2568,-4.2612,-4.2676,-4.271,-4.274,-4.2794,-4.2831,-4.2861,-4.2898,-4.2961,-4.2995,-4.3057,-4.3107,-4.3203,-4.3242,-4.33,-4.3304,-4.3342,-4.3312,-4.3304,-4.3304,-4.33,-4.3305,-4.3346,-4.3347,-4.3347,-4.3348,0,-4.2644,-4.2659,-4.2711,-4.2769,-4.2813,-4.286,-4.2907,-4.2934,-4.2972,-4.3014,-4.3076,-4.3115,-4.3193,-4.3254,-4.3316,-4.3347,-4.3354,-4.3357,-4.3369,-4.3362,-4.3348,-4.3356,-4.3248,-4.3354,-4.3353,-4.3353,-4.3353,-4.3352,-4.2694,-4.2735,-4.2786,-4.2844,-4.2883,-4.2927,-4.2969,-4.3003,-4.3056,-4.3121,-4.3137,-4.3202,-4.3254,-4.3337,-4.3371,-4.3423,-4.3415,-4.3433,-4.3437,-4.3441,-4.3442,-4.3341,-4.3434,-4.3434,-4.3434,-4.3434,-4.3434,0,-4.2771,-4.2805,-4.2858,-4.2924,-4.297,-4.2974,-4.3027,-4.3065,-4.3122,-4.317,-4.322,-4.3292,-4.3352,-4.3396,-4.3457,-4.3491,-4.3496,-4.3506,-4.3503,-4.351,-4.3445,-4.3428,-4.3501,-4.3501,-4.3501,-4.3501,-4.3501,-4.3501,-4.2816,-4.2885,-4.2906,-4.2995,-4.3029,-4.3094,-4.3124,-4.3165,-4.3203,-4.3283,-4.3333,-4.3362,-4.3408,-4.3474,-4.3529,-4.3541,-4.3562,-4.3572,-4.3584,-4.3522,-4.3515,-4.3508,-4.3492,-4.3576,-4.3577,-4.3644,-4.3645,-4.3645]},{"header":{"parameterUnit":"m.s-1","parameterCategory":1,"la1":30.2991,"la2":30.254,"lo1":-89.0895,"lo2":-89.0444,"dy":0.0017,"dx":0.0017,"nx":28,"ny":28,"refTime":"2024-04-27T21:00:00:Z","depth":0,"parameterNumber":3,"parameterNumberName":"V-component_of_WINDS"},"data":[0,0,0,0,0,0,0,0,0,0,0,0,0,0,0,0,0,0,0,0,0,0,0,0,0,0,0,0,0,0,0,0,0,0,0,0,0,0,0,0,0,0,0,0,0,0,0,0,0,0,0,0,0,0,0,0,0,0,5.6553,5.6554,0,5.66,5.66,5.6601,5.6603,5.6602,5.6602,5.6601,5.6645,5.6646,5.6648,0,0,0,0,0,0,0,0,0,0,0,0,0,5.6464,5.6465,5.6553,5.6554,5.6554,5.66,5.66,5.6601,5.6603,5.6602,5.6601,5.6601,5.6644,5.6646,5.6648,0,0,0,0,0,0,0,0,0,0,0,0,0,5.6505,5.6466,5.6553,5.6561,5.6562,5.66,5.66,5.6601,5.6603,5.6602,5.6601,5.6601,5.6644,5.6646,5.6649,5.668,0,0,5.6656,5.6657,0,0,0,0,0,0,0,0,5.6503,5.6509,5.6559,5.656,5.6562,5.6595,5.6585,5.6628,5.6603,5.6587,5.6601,5.66,5.6629,5.6632,5.6643,5.6682,5.6684,5.6656,5.6658,5.6659,5.666,0,0,0,0,0,0,0,5.65,5.6507,5.6572,5.656,5.6562,5.6561,5.6566,5.6593,5.6612,5.6589,5.6589,5.6595,5.6629,5.664,5.6644,5.6685,5.6656,5.6659,5.666,5.6661,5.6754,5.6755,0,0,0,0,0,0,5.6496,5.6504,5.657,5.6573,5.653,5.6564,5.6569,5.6585,5.6612,5.6615,5.6595,5.6594,5.6636,5.6641,5.6645,5.6685,5.6659,5.6661,5.6663,5.6753,5.6755,5.6756,0,0,0,0,0,0,5.6494,5.6502,5.6568,5.6539,5.6547,5.6566,5.6584,5.6586,5.6597,5.6617,5.662,5.6603,5.6636,5.6642,5.6672,5.6687,5.6662,5.6665,5.6752,5.6754,5.6755,5.6765,0,0,0,0,0,0,5.6492,5.6501,5.6514,5.6539,5.6549,5.6595,5.6584,5.6588,5.6602,5.6602,5.6625,5.6628,5.6636,5.6668,5.6675,5.669,5.6667,5.6751,5.6753,5.6755,5.6763,5.6766,5.6769,0,0,0,0,0,5.6489,5.6514,5.6515,5.6523,5.6565,5.6596,5.6601,5.6611,5.6603,5.6616,5.6629,5.6627,5.6684,5.6672,5.6679,5.6694,5.675,5.6752,5.6755,5.6762,5.6766,5.6769,0,0,0,0,0,0,5.6488,5.6517,5.6518,5.6553,5.6572,5.6596,5.6612,5.6614,5.6635,5.6634,5.6643,5.6648,5.6679,5.669,5.6675,5.6727,5.6716,5.672,5.6719,5.6723,5.6726,5.6723,5.6669,0,0,0,0,0,5.6492,5.6516,5.6539,5.6567,5.6577,5.6593,5.6607,5.6613,5.6633,5.664,5.6655,5.6673,5.6696,5.671,5.6731,5.6765,5.677,5.6779,5.6782,5.6785,5.6787,5.6807,5.6812,5.6763,5.6763,5.6763,0,0,5.65,5.6519,5.6533,5.6568,5.6583,5.6607,5.66,5.6625,5.6642,5.6644,5.6674,5.6686,5.6707,5.6739,5.6754,5.6749,5.6802,5.6787,5.6789,5.6791,5.681,5.6814,5.6819,5.6764,5.6764,5.6764,0,0,5.6527,5.6544,5.657,5.6586,5.6611,5.6622,5.6628,5.6653,5.6661,5.6692,5.6694,5.6714,5.6752,5.6768,5.678,5.6816,5.6816,5.6822,5.6837,5.6856,5.686,5.6864,5.6877,5.6882,5.6825,5.6825,5.6825,0,5.6534,5.6571,5.6582,5.6608,5.6623,5.6628,5.6654,5.6669,5.6699,5.6709,5.6703,5.6752,5.6766,5.6803,5.6812,5.6822,5.6829,5.682,5.6859,5.6863,5.6866,5.6879,5.6884,5.6826,5.6826,5.6826,5.6826,0,5.6578,5.6603,5.6621,5.6652,5.6669,5.6695,5.671,5.6726,5.6731,5.6742,5.6774,5.6792,5.6818,5.6827,5.6831,5.6865,5.6861,5.6857,5.6846,5.6871,5.6883,5.6888,5.6827,5.6827,5.6827,5.6827,0,0,5.6604,5.6643,5.665,5.6664,5.6693,5.6712,5.6738,5.6765,5.6779,5.68,5.6822,5.6855,5.6852,5.6867,5.6873,5.6889,5.6917,5.6883,5.6884,5.6889,5.6956,5.696,5.6965,5.6918,5.6919,5.6919,5.6955,0,5.6635,5.6683,5.6695,5.6736,5.676,5.6765,5.6788,5.6808,5.682,5.6841,5.6853,5.6877,5.6871,5.688,5.6897,5.691,5.6931,5.6908,5.6938,5.6939,5.6932,5.6971,5.6974,5.7007,5.696,5.696,5.6961,0,5.6677,5.6701,5.6745,5.6772,5.6782,5.6803,5.6829,5.685,5.6872,5.688,5.6897,5.6902,5.6929,5.6917,5.6955,5.6939,5.6952,5.6961,5.6962,5.6965,5.6951,5.6975,5.7017,5.7022,5.6968,5.6968,5.6967,0,5.6693,5.6736,5.6768,5.678,5.6812,5.6827,5.6841,5.6863,5.6879,5.6901,5.6912,5.6937,5.695,5.6969,5.6981,5.6971,5.7018,5.7007,5.7024,5.7024,5.7034,5.7033,5.7078,5.7042,5.7042,5.7042,5.7042,0,5.6726,5.6753,5.6776,5.6796,5.6826,5.6839,5.6868,5.6882,5.6902,5.6924,5.693,5.695,5.6964,5.6986,5.6995,5.7025,5.7031,5.7038,5.704,5.7037,5.7037,5.7046,5.7044,5.7043,5.7043,5.7042,5.7042,0,5.6749,5.6766,5.6801,5.683,5.6837,5.6858,5.6882,5.6901,5.6914,5.6942,5.6949,5.6968,5.6995,5.7009,5.7041,5.7047,5.7082,5.7082,5.7074,5.7075,5.7093,5.7091,5.7146,5.7154,5.7112,5.7112,5.7112,0,5.6769,5.679,5.6821,5.6838,5.6852,5.6878,5.6895,5.6909,5.6926,5.6955,5.697,5.6998,5.702,5.7063,5.7079,5.7104,5.7106,5.7123,5.7109,5.7107,5.7107,5.7105,5.7108,5.7126,5.7126,5.7126,5.7127,0,5.6803,5.6811,5.6836,5.6865,5.6885,5.6908,5.693,5.6942,5.696,5.6979,5.7008,5.7026,5.706,5.7087,5.7114,5.7128,5.713,5.7131,5.7137,5.7134,5.7129,5.7133,5.7082,5.7129,5.7129,5.7129,5.7129,5.7129,5.6825,5.6845,5.6871,5.6899,5.6918,5.6939,5.6959,5.6975,5.6999,5.703,5.7036,5.7066,5.7089,5.7126,5.714,5.7164,5.716,5.7168,5.717,5.7172,5.7173,5.7126,5.7169,5.7168,5.7168,5.7168,5.7168,0,5.6861,5.6878,5.6904,5.6936,5.6958,5.6961,5.6986,5.7004,5.7031,5.7053,5.7076,5.7109,5.7135,5.7155,5.7182,5.7197,5.7199,5.7204,5.7203,5.7206,5.7174,5.7167,5.7202,5.7202,5.7202,5.7202,5.7202,5.7202,5.6881,5.6915,5.6926,5.6969,5.6986,5.7017,5.7031,5.7051,5.7069,5.7106,5.7129,5.7142,5.7163,5.7192,5.7217,5.7222,5.7232,5.7236,5.7241,5.7211,5.7208,5.7205,5.7198,5.7238,5.7238,5.7271,5.7271,5.7272]}]]